Date String (YYYY-MM-DD hh:mm:ss) UTC,Instrument flags,Ambient pressure (hPa),Sample flow (lpm),Bypass flow (lpm),Sample temperature (°C),Ambient temperature (°C),ASC tube jacket temperature (°C),LED temperature (°C),Box temperature (°C),Sample RH (%),Span deviation,Mass concentration (μg/m³),Mass concentration (μg/m³),Mass concentration (μg/m³)
DateTimeUTC,F1_M11,P_M11,Q1_M11,Q2_M11,T1_M11,T2_M11,T3_M11,T4_M11,T5_M11,U1_M11,ZSPAN_M11,X2_M11,X0_M11,X1_M11
2021-11-21 15:00:00,,0836.7,5.00,0.00,22.8,21.9,00.0,31.8,24.6,13.6,0000.0,0003.37,0006.58,0002.88
2021-11-21 15:01:00,,0836.7,5.00,0.00,22.9,22.0,00.0,31.8,24.7,13.7,0000.0,0003.39,0006.78,0002.89
2021-11-21 15:02:00,,0836.7,4.99,0.00,22.9,22.0,00.0,31.8,24.7,13.7,0000.0,0003.41,0006.84,0002.92
2021-11-21 15:03:00,,0836.7,5.02,0.00,22.9,22.0,00.0,31.8,24.7,13.7,0000.0,0003.44,0007.55,0002.95
2021-11-21 15:04:00,,0836.7,4.99,0.00,22.9,22.1,00.0,31.8,24.7,13.7,0000.0,0003.47,0007.65,0002.97
2021-11-21 15:05:00,,0836.7,5.00,0.00,22.9,22.1,00.0,31.8,24.7,13.6,0000.0,0003.50,0007.89,0003.00
2021-11-21 15:06:00,,0836.7,5.02,0.00,22.9,22.1,00.0,31.9,24.8,13.9,0000.0,0003.49,0008.49,0003.02
2021-11-21 15:07:00,,0836.7,4.99,0.00,22.9,22.1,00.0,31.9,24.8,14.9,0000.0,0003.46,0008.34,0002.99
2021-11-21 15:08:00,,0836.7,5.01,0.00,22.9,22.2,00.0,31.9,24.8,14.5,0000.0,0003.42,0008.11,0002.97
2021-11-21 15:09:00,,0836.7,4.98,0.00,23.0,22.1,00.0,31.9,24.8,13.7,0000.0,0003.39,0008.04,0002.94
2021-11-21 15:10:00,,0836.7,5.00,0.00,23.0,22.1,00.0,31.9,24.8,13.2,0000.0,0003.37,0007.91,0002.90
2021-11-21 15:11:00,,0836.7,5.00,0.00,23.0,22.1,00.0,31.9,24.8,12.8,0000.0,0003.32,0007.41,0002.84
2021-11-21 15:12:00,,0836.7,5.00,0.00,23.0,22.1,00.0,31.9,24.8,12.9,0000.0,0003.28,0007.70,0002.78
2021-11-21 15:13:00,,0836.7,5.02,0.00,23.0,22.1,00.0,31.9,24.8,13.4,0000.0,0003.25,0007.90,0002.73
2021-11-21 15:14:00,,0836.7,4.99,0.00,23.0,22.1,00.0,31.9,24.8,13.8,0000.0,0003.24,0007.65,0002.71
2021-11-21 15:15:00,,0836.7,5.00,0.00,23.0,22.2,00.0,31.9,24.9,13.7,0000.0,0003.26,0007.59,0002.69
2021-11-21 15:16:00,,0836.8,5.00,0.00,23.1,22.2,00.0,32.0,24.9,13.7,0000.0,0003.24,0007.57,0002.68
2021-11-21 15:17:00,,0836.8,5.00,0.00,23.1,22.2,00.0,32.0,24.9,13.8,0000.0,0003.22,0006.41,0002.64
2021-11-21 15:18:00,,0836.7,5.00,0.00,23.1,22.2,00.0,32.0,24.9,13.9,0000.0,0003.21,0006.12,0002.64
2021-11-21 15:19:00,,0836.7,4.99,0.00,23.1,22.2,00.0,32.0,24.9,14.3,0000.0,0003.22,0006.17,0002.63
2021-11-21 15:20:00,,0836.7,5.00,0.00,23.1,22.3,00.0,32.0,24.9,14.1,0000.0,0003.20,0006.19,0002.61
2021-11-21 15:21:00,,0836.7,5.01,0.00,23.1,22.3,00.0,32.0,24.9,14.4,0000.0,0003.18,0006.45,0002.58
2021-11-21 15:22:00,,0836.7,5.00,0.00,23.1,22.3,00.0,32.0,24.9,14.3,0000.0,0003.20,0006.67,0002.60
2021-11-21 15:23:00,,0836.7,5.00,0.00,23.1,22.3,00.0,32.0,24.9,14.2,0000.0,0003.22,0006.29,0002.62
2021-11-21 15:24:00,,0836.6,5.01,0.00,23.1,22.3,00.0,32.1,24.9,14.5,0000.0,0003.20,0005.59,0002.61
2021-11-21 15:25:00,,0836.6,5.00,0.00,23.2,22.2,00.0,32.1,24.9,14.4,0000.0,0003.20,0005.59,0002.60
2021-11-21 15:26:00,,0836.6,5.00,0.00,23.2,22.3,00.0,32.1,25.0,14.3,0000.0,0003.15,0005.38,0002.57
2021-11-21 15:27:00,,0836.6,5.01,0.00,23.2,22.3,00.0,32.1,25.0,14.5,0000.0,0003.11,0005.20,0002.55
2021-11-21 15:28:00,,0836.6,4.99,0.00,23.2,22.3,00.0,32.1,25.0,14.3,0000.0,0003.07,0005.15,0002.54
2021-11-21 15:29:00,,0836.6,5.00,0.00,23.2,22.3,00.0,32.1,25.0,14.1,0000.0,0003.05,0005.18,0002.53
2021-11-21 15:30:00,,0836.7,5.01,0.00,23.2,22.4,00.0,32.1,25.0,13.6,0000.0,0003.01,0004.97,0002.51
2021-11-21 15:31:00,,0836.7,4.99,0.00,23.2,22.4,00.0,32.1,25.0,14.1,0000.0,0002.96,0004.81,0002.47
2021-11-21 15:32:00,,0836.7,5.02,0.00,23.2,22.4,00.0,32.1,25.1,13.9,0000.0,0002.91,0004.46,0002.43
2021-11-21 15:33:00,,0836.7,4.99,0.00,23.2,22.4,00.0,32.2,25.1,14.3,0000.0,0002.82,0004.12,0002.38
2021-11-21 15:34:00,,0836.7,5.01,0.00,23.2,22.4,00.0,32.2,25.1,14.6,0000.0,0002.74,0003.93,0002.33
2021-11-21 15:35:00,,0836.7,5.00,0.00,23.2,22.4,00.0,32.2,25.1,14.7,0000.0,0002.73,0003.87,0002.28
2021-11-21 15:36:00,,0836.7,4.99,0.00,23.2,22.4,00.0,32.2,25.1,14.0,0000.0,0002.73,0003.86,0002.23
2021-11-21 15:37:00,,0836.6,5.00,0.00,23.2,22.4,00.0,32.2,25.1,13.5,0000.0,0002.67,0003.70,0002.17
2021-11-21 15:38:00,,0836.6,5.00,0.00,23.2,22.4,00.0,32.2,25.0,13.0,0000.0,0002.60,0003.62,0002.09
2021-11-21 15:39:00,,0836.6,5.01,0.00,23.2,22.4,00.0,32.2,25.0,12.6,0000.0,0002.54,0003.53,0002.00
2021-11-21 15:40:00,,0836.6,5.00,0.00,23.2,22.3,00.0,32.2,25.0,12.8,0000.0,0002.47,0003.64,0001.93
2021-11-21 15:41:00,,0836.6,4.99,0.00,23.2,22.3,00.0,32.2,24.9,13.0,0000.0,0002.41,0003.75,0001.91
2021-11-21 15:42:00,,0836.5,5.01,0.00,23.1,22.3,00.0,32.2,24.9,13.2,0000.0,0002.44,0003.81,0001.92
2021-11-21 15:43:00,,0836.5,5.00,0.00,23.1,22.3,00.0,32.2,24.9,13.2,0000.0,0002.48,0003.92,0001.93
2021-11-21 15:44:00,,0836.5,5.00,0.00,23.1,22.2,00.0,32.2,24.9,13.6,0000.0,0002.55,0004.03,0001.96
2021-11-21 15:45:00,,0836.5,5.01,0.00,23.1,22.2,00.0,32.2,24.8,13.6,0000.0,0002.66,0004.25,0002.04
2021-11-21 15:46:00,,0836.5,5.01,0.00,23.1,22.2,00.0,32.2,24.8,13.8,0000.0,0002.71,0004.28,0002.10
2021-11-21 15:47:00,,0836.5,4.99,0.00,23.1,22.2,00.0,32.1,24.8,14.0,0000.0,0002.76,0004.35,0002.18
2021-11-21 15:48:00,,0836.5,5.00,0.00,23.0,22.2,00.0,32.1,24.8,14.0,0000.0,0002.83,0004.45,0002.27
2021-11-21 15:49:00,,0836.6,5.01,0.00,23.0,22.2,00.0,32.1,24.8,14.1,0000.0,0002.93,0004.74,0002.37
2021-11-21 15:50:00,,0836.6,5.00,0.00,23.0,22.2,00.0,32.1,24.7,14.0,0000.0,0003.03,0005.14,0002.48
2021-11-21 15:51:00,,0836.6,4.99,0.00,23.0,22.2,00.0,32.1,24.7,14.2,0000.0,0003.14,0005.11,0002.59
2021-11-21 15:52:00,,0836.5,5.01,0.00,23.0,22.2,00.0,32.1,24.7,14.1,0000.0,0003.19,0005.04,0002.68
2021-11-21 15:53:00,,0836.5,5.00,0.00,23.0,22.2,00.0,32.1,24.7,13.9,0000.0,0003.23,0005.28,0002.73
2021-11-21 15:54:00,,0836.5,5.00,0.00,23.0,22.2,00.0,32.1,24.7,13.6,0000.0,0003.25,0006.01,0002.76
2021-11-21 15:55:00,,0836.6,5.01,0.00,23.0,22.2,00.0,32.1,24.7,13.7,0000.0,0003.24,0006.12,0002.78
2021-11-21 15:56:00,,0836.6,5.00,0.00,23.0,22.2,00.0,32.1,24.7,13.9,0000.0,0003.22,0006.22,0002.76
2021-11-21 15:57:00,,0836.6,4.99,0.00,23.0,22.2,00.0,32.0,24.8,13.5,0000.0,0003.22,0006.31,0002.74
2021-11-21 15:58:00,,0836.6,5.00,0.00,23.0,22.3,00.0,32.0,24.7,13.5,0000.0,0003.20,0006.26,0002.70
2021-11-21 15:59:00,,0836.6,4.99,0.00,23.0,22.3,00.0,32.0,24.8,13.5,0000.0,0003.20,0006.48,0002.64
